Location: Nashville
(36.1660°N, 86.7840°W)
Time: 03:12:24
(UTC-06:00)

Courier 1B - Visible Passes

Search period start: 28 January 2022 00:00
Search period end: 07 February 2022 00:00
Orbit: 962 x 1209 km, 28.3° (Epoch: 28 January)

Date Brightness Start Highest point End Pass type
(mag) Time Alt. Az. Time Alt. Az. Time Alt. Az.
28 Jan 8.5 18:54:22 10° WSW 19:01:39 46° S 19:04:49 32° SE visible
28 Jan 9.5 20:48:15 10° WSW 20:51:43 27° WSW 20:51:43 27° WSW visible
29 Jan 8.7 18:00:43 10° WSW 18:07:48 43° S 18:14:26 13° ESE visible
29 Jan 8.5 19:54:20 10° WSW 20:01:20 47° SSW 20:01:20 47° SSW visible
30 Jan 8.5 19:00:31 10° WSW 19:07:49 48° S 19:10:58 32° SE visible
30 Jan 9.6 20:54:41 10° W 20:57:52 24° WSW 20:57:52 24° WSW visible
31 Jan 8.6 18:06:48 10° WSW 18:13:57 47° S 18:20:37 13° ESE visible
31 Jan 8.7 20:00:42 10° WSW 20:07:31 41° SSW 20:07:31 41° SSW visible
01 Feb 8.6 19:06:50 10° WSW 19:13:59 45° S 19:17:13 30° SE visible
01 Feb 9.8 21:01:22 10° WSW 21:04:07 20° WSW 21:04:07 20° WSW visible
02 Feb 8.6 18:13:02 10° WSW 18:20:08 47° S 18:26:56 12° ESE visible
02 Feb 9.0 20:07:15 10° WSW 20:13:50 33° SSW 20:13:50 33° SSW visible
03 Feb 8.9 19:13:17 10° WSW 19:20:07 37° SSW 19:23:37 25° SSE visible
03 Feb 10.1 21:08:37 10° WSW 21:10:32 15° SW 21:10:32 15° SW visible
04 Feb 8.8 18:19:25 10° WSW 18:26:17 41° S 18:33:27 10° ESE visible
04 Feb 9.4 20:14:09 10° WSW 20:19:56 23° SSW 20:20:22 23° SSW visible
05 Feb 9.3 19:19:58 10° WSW 19:26:11 28° SSW 19:30:17 18° SSE visible
06 Feb 9.2 18:26:00 10° WSW 18:32:25 33° SSW 18:39:06 10° SE visible
06 Feb 9.9 20:21:58 10° WSW 20:25:54 15° SSW 20:27:11 14° SSW visible
